AirNav   Everest Fuels
 
 1188 users online  

15W Dennis Farms Airport
Laingsburg, Michigan, USA

GOING TO LAINGSBURG?


FAA INFORMATION EFFECTIVE 21 MAY 2020

Location

FAA Identifier: 15W
Lat/Long: 42-53-39.9000N 084-23-32.0000W
42-53.665000N 084-23.533333W
42.8944167,-84.3922222
(estimated)
Elevation: 828 ft. / 252.4 m (surveyed)
Variation: 05W (1985)
From city: 2 miles NW of LAINGSBURG, MI
Time zone: UTC -4 (UTC -5 during Standard Time)
Zip code: 48848

Airport Operations

Airport use: Open to the public
Activation date: 06/1971
Control tower: no
ARTCC: CLEVELAND CENTER
FSS: LANSING FLIGHT SERVICE STATION
NOTAMs facility: LAN (NOTAM-D service available)
Attendance: IREG
Wind indicator: yes
Segmented circle: no

Airport Communications

CTAF: 122.9
WX ASOS at LAN (11 nm SW): 119.75 (517-908-8494)
WX AWOS-3 at RNP (13 nm NE): 118.025 (989-729-2967)
WX AWOS-3 at TEW (20 nm S): 119.425 (517-676-5607)

Nearby radio navigation aids

VOR radial/distance  VOR name  Freq  Var
FNTr267/28.7FLINT VORTAC116.9006W

Airport Services

Airframe service: NONE
Powerplant service: NONE
Bottled oxygen: NONE

Runway Information

Runway 9/27

Dimensions: 1880 x 50 ft. / 573 x 15 m
Surface: turf, in fair condition
Runway edge markings: 09/27 MARKED WITH 2 FT YELLOW CONES.
RUNWAY 9  RUNWAY 27
Latitude: 42-53.662637N42-53.665733N
Longitude: 084-23.743947W084-23.322933W
Elevation: 828.0 ft.827.0 ft.
Traffic pattern: leftleft
Runway heading: 094 magnetic, 089 true274 magnetic, 269 true
Obstructions: 76 ft. trees, 942 ft. from runway, 112 ft. left of centerline, 12:1 slope to clear81 ft. trees, 864 ft. from runway, 100 ft. right of centerline, 10:1 slope to clear

Airport Ownership and Management from official FAA records

Ownership: Privately-owned
Owner: KEVIN DENNIS
8715 ALWARD RD
LAINGSBURG, MI 48848
Phone 517-651-5375
Manager: KEVIN COZIK
6626 S. PENINSULA WAY
LAINGSBURG, MI 48848
Phone 517-749-7196

Airport Operational Statistics

Aircraft based on the field: 2
Single engine airplanes: 2
    
Aircraft operations: 100/year *
50% transient general aviation
50% local general aviation
* for 12-month period ending 31 December 2018

Additional Remarks

DEER & BIRDS ON & INVOF ARPT.
CTC ARPT MGR FOR RY CONDS.
FOR CD CTC KALAMAZOO APCH AT 269-459-3345, WHEN APCH CLSD CTC CLEVELAND ARTCC AT 440-774-0224, IF UNA CTC 440-774-0490.

Instrument Procedures

There are no published instrument procedures at 15W.

Some nearby airports with instrument procedures:

KLAN - Capital Region International Airport (11 nm SW)
KRNP - Owosso Community Airport (13 nm NE)
4D0 - Abrams Municipal Airport (17 nm SW)
KTEW - Mason Jewett Field Airport (20 nm S)
KOZW - Livingston County Spencer J Hardy Airport (24 nm SE)
 
Loc | Ops | Rwys | IFR | FBO | Links
Com | Nav | Svcs | Stats | Notes
Area around 15W (Dennis Farms Airport)
 
Road maps at: MapQuest Bing Google
 
Aerial photo
No photo
 
Sectional chart

 
Airport distance calculator
Flying to Dennis Farms Airport? Find the distance to fly.

From to 15W

Sunrise and sunset
Times for 25-May-2020
 Local
(UTC-4)
 Zulu
(UTC)
Morning civil twilight05:3209:32
Sunrise06:0610:06
Sunset21:0301:03
Evening civil twilight21:3701:37

Current date and time
Zulu (UTC)  25-May-2020 18:14:56
Local (UTC-4)  25-May-2020 14:14:56
 
METAR
KLAN 
11nm SW 
251753Z 15004KT 10SM CLR 28/19 A3003 RMK AO2 SLP165 T02830194 10283 20217 58005 $
KRNP 
13nm NE 
251755Z AUTO 18006KT 10SM CLR 28/19 A3004 RMK AO2 T02830188 10286 20212
KTEW 
20nm S 
251755Z AUTO 16005G14KT 10SM CLR 28/21 A3005 RMK AO2 T02840208 10284 20205
TAF
KLAN 
11nm SW 
251125Z 2512/2612 VRB03KT P6SM SCT250 FM251400 19006KT P6SM SCT250
NOTAMs
Click for the latest NOTAMs
NOTAMs are issued by the DoD/FAA and will open in a separate window not controlled by AirNav.

 

 
 

Would you like to see your business listed on this page?

 If your business provides an interesting product or service to pilots, flight crews, aircraft, or users of the Dennis Farms Airport, you should consider listing it here.  To start the listing process, click on the button below
 
Add a business
 

Other Pages about Dennis Farms Airport

Page from the Michigan Airport Directory (PDF)
 
Update a link
 
Copyright © AirNav, LLC. All rights reserved. Privacy Policy  Contact